| time (UTC) | temp F | wind direction | speed knots | gust knots | rain 1hr in | rain 24hr in | rain mn in | humidity % | barometer mb |
| 20260506024506 | 77 | 30 | 0.0 | 3.5 | 0.00 | 0.00 | 0.00 | 83 | 1007.9 |
| 20260506023004 | 77 | 126 | 0.0 | 4.3 | 0.00 | 0.00 | 0.00 | 83 | 1007.4 |
| 20260506021508 | 77 | 149 | 0.9 | 4.3 | 0.00 | 0.00 | 0.00 | 82 | 1007.2 |
| 20260506020017 | 77 | 108 | 0.0 | 5.2 | 0.00 | 0.00 | 0.00 | 84 | 1006.8 |
| 20260506014523 | 77 | 107 | 0.0 | 3.5 | 0.00 | 0.00 | 0.00 | 83 | 1006.7 |
| 20260506013003 | 78 | 165 | 0.0 | 1.7 | 0.00 | 0.00 | 0.00 | 81 | 1006.7 |
| 20260506011510 | 78 | 205 | 0.0 | 5.2 | 0.00 | 0.00 | 0.00 | 81 | 1006.5 |
| 20260506010029 | 78 | 199 | 0.0 | 3.5 | 0.00 | 0.00 | 0.00 | 81 | 1006.6 |
| 20260506004517 | 79 | 183 | 0.0 | 1.7 | 0.00 | 0.00 | 0.00 | 81 | 1006.5 |
| 20260506003023 | 80 | 328 | 0.0 | 1.7 | 0.00 | 0.00 | 0.00 | 80 | 1006.5 |
| 20260506001504 | 80 | 175 | 0.0 | 1.7 | 0.00 | 0.00 | 0.00 | 78 | 1006.6 |
| 20260506000013 | 80 | 33 | 0.9 | 5.2 | 0.00 | 0.00 | 0.00 | 78 | 1006.6 |
| 20260505234514 | 81 | 226 | 0.0 | 4.3 | 0.00 | 0.00 | 0.00 | 77 | 1006.4 |
| 20260505233020 | 81 | 261 | 0.0 | 4.3 | 0.00 | 0.00 | 0.00 | 77 | 1006.2 |
| 20260505231521 | 81 | 269 | 0.0 | 8.7 | 0.00 | 0.00 | 0.00 | 78 | 1006.1 |
| 20260505230006 | 81 | 150 | 0.9 | 6.1 | 0.00 | 0.00 | 0.00 | 76 | 1006.1 |
| 20260505224533 | 82 | 115 | 0.0 | 5.2 | 0.00 | 0.00 | 0.00 | 76 | 1006.0 |
| 20260505223018 | 82 | 126 | 0.9 | 7.8 | 0.00 | 0.00 | 0.00 | 73 | 1006.0 |
| 20260505221522 | 82 | 266 | 0.9 | 4.3 | 0.00 | 0.00 | 0.00 | 74 | 1005.9 |
| 20260505220027 | 83 | 182 | 0.9 | 7.8 | 0.00 | 0.00 | 0.00 | 71 | 1006.1 |
| 20260505214512 | 83 | 300 | 0.9 | 7.8 | 0.00 | 0.00 | 0.00 | 73 | 1006.4 |
| 20260505213021 | 83 | 122 | 1.7 | 6.1 | 0.00 | 0.00 | 0.00 | 75 | 1006.5 |
| 20260505211522 | 84 | 63 | 0.0 | 8.7 | 0.00 | 0.00 | 0.00 | 75 | 1006.8 |
| 20260505210022 | 84 | 207 | 1.7 | 7.0 | 0.00 | 0.00 | 0.00 | 70 | 1006.8 |
| 20260505204527 | 84 | 339 | 0.9 | 6.1 | 0.00 | 0.00 | 0.00 | 71 | 1006.9 |
| 20260505203036 | 83 | 136 | 1.7 | 7.8 | 0.00 | 0.00 | 0.00 | 74 | 1007.1 |
| 20260505201519 | 83 | 167 | 0.9 | 7.8 | 0.00 | 0.00 | 0.00 | 72 | 1007.4 |
| 20260505200021 | 83 | 155 | 0.9 | 3.5 | 0.00 | 0.00 | 0.00 | 75 | 1007.7 |
| 20260505194526 | 83 | 155 | 0.0 | 7.8 | 0.00 | 0.00 | 0.00 | 74 | 1007.9 |
| 20260505193028 | 82 | 132 | 0.0 | 5.2 | 0.00 | 0.00 | 0.00 | 76 | 1008.1 |
| 20260505191518 | 82 | 221 | 0.9 | 7.8 | 0.00 | 0.00 | 0.00 | 78 | 1008.2 |
| 20260505190029 | 80 | 218 | 0.9 | 8.7 | 0.00 | 0.00 | 0.00 | 77 | 1008.3 |
| 20260505184525 | 79 | 71 | 0.9 | 5.2 | 0.00 | 0.00 | 0.00 | 78 | 1008.6 |
| 20260505183042 | 78 | 258 | 0.9 | 4.3 | 0.00 | 0.00 | 0.00 | 78 | 1008.7 |
| 20260505181503 | 77 | 114 | 0.9 | 7.8 | 0.00 | 0.00 | 0.00 | 79 | 1008.9 |
| 20260505180004 | 76 | 266 | 1.7 | 8.7 | 0.00 | 0.00 | 0.00 | 80 | 1009.1 |
| 20260505174504 | 77 | 248 | 1.7 | 7.0 | 0.00 | 0.00 | 0.00 | 80 | 1009.3 |
| 20260505173004 | 76 | 225 | 0.9 | 5.2 | 0.00 | 0.00 | 0.00 | 84 | 1009.3 |
| 20260505171507 | 75 | 219 | 0.0 | 5.2 | 0.00 | 0.00 | 0.00 | 83 | 1009.4 |
| 20260505170008 | 75 | 172 | 0.9 | 6.1 | 0.00 | 0.00 | 0.00 | 85 | 1009.5 |
| 20260505164503 | 74 | 250 | 0.9 | 6.1 | 0.00 | 0.00 | 0.00 | 85 | 1009.5 |
| 20260505163009 | 73 | 287 | 0.9 | 7.0 | 0.00 | 0.00 | 0.00 | 86 | 1009.5 |
| 20260505161508 | 72 | 270 | 0.9 | 7.0 | 0.00 | 0.00 | 0.00 | 87 | 1009.4 |
| 20260505153012 | 72 | 21 | 1.7 | 6.1 | 0.00 | 0.00 | 0.00 | 87 | 1009.6 |
| 20260505151506 | 72 | 212 | 1.7 | 6.1 | 0.00 | 0.00 | 0.00 | 87 | 1009.4 |
| 20260505124515 | 70 | 202 | 0.9 | 4.3 | 0.00 | 0.00 | 0.00 | 88 | 1008.2 |
| 20260505123019 | 70 | 128 | 0.9 | 6.1 | 0.00 | 0.00 | 0.00 | 88 | 1007.9 |
| 20260505121526 | 70 | 169 | 0.9 | 4.3 | 0.00 | 0.00 | 0.00 | 88 | 1007.7 |
| 20260505120033 | 70 | 223 | 0.9 | 6.1 | 0.00 | 0.00 | 0.00 | 88 | 1007.5 |
| 20260505114515 | 70 | 131 | 0.9 | 7.0 | 0.00 | 0.00 | 0.00 | 88 | 1007.5 |
| 20260505113020 | 70 | 122 | 0.9 | 7.0 | 0.00 | 0.00 | 0.00 | 87 | 1007.7 |
| 20260505111521 | 70 | 297 | 1.7 | 7.8 | 0.00 | 0.00 | 0.00 | 87 | 1007.5 |
| 20260505101524 | 70 | 175 | 1.7 | 7.8 | 0.00 | 0.00 | 0.00 | 86 | 1008.1 |
| 20260505100027 | 70 | 325 | 0.0 | 3.5 | 0.00 | 0.00 | 0.00 | 86 | 1008.1 |
| 20260505094524 | 70 | 254 | 0.0 | 4.3 | 0.00 | 0.00 | 0.00 | 86 | 1007.9 |
| 20260505093014 | 70 | 28 | 1.7 | 7.0 | 0.00 | 0.00 | 0.00 | 86 | 1008.1 |
| 20260505091513 | 70 | 136 | 0.9 | 3.5 | 0.00 | 0.00 | 0.00 | 86 | 1008.1 |
| 20260505090012 | 70 | 95 | 1.7 | 7.0 | 0.00 | 0.00 | 0.00 | 87 | 1008.2 |
| 20260505084507 | 70 | 203 | 0.9 | 7.0 | 0.00 | 0.00 | 0.00 | 86 | 1008.2 |
| 20260505083014 | 70 | 202 | 1.7 | 6.1 | 0.00 | 0.00 | 0.00 | 86 | 1008.4 |
| 20260505081518 | 70 | 194 | 0.9 | 6.1 | 0.00 | 0.00 | 0.00 | 86 | 1008.6 |
| 20260505080003 | 70 | 262 | 0.9 | 9.6 | 0.00 | 0.00 | 0.00 | 85 | 1008.6 |
| 20260505074505 | 70 | 332 | 2.6 | 8.7 | 0.00 | 0.00 | 0.00 | 85 | 1008.9 |
| 20260505073024 | 70 | 105 | 0.9 | 7.0 | 0.00 | 0.00 | 0.00 | 85 | 1008.9 |
| 20260505071519 | 70 | 294 | 1.7 | 9.6 | 0.00 | 0.00 | 0.00 | 85 | 1009.1 |
| 20260505070022 | 70 | 206 | 0.9 | 7.8 | 0.00 | 0.00 | 0.00 | 85 | 1009.2 |
| 20260505064516 | 70 | 59 | 0.9 | 6.1 | 0.00 | 0.00 | 0.00 | 85 | 1009.4 |
| 20260505063010 | 71 | 209 | 0.9 | 7.0 | 0.00 | 0.00 | 0.00 | 84 | 1009.6 |
| 20260505061528 | 71 | 304 | 1.7 | 8.7 | 0.00 | 0.00 | 0.00 | 84 | 1009.7 |
| 20260505060019 | 71 | 96 | 0.9 | 3.5 | 0.00 | 0.00 | 0.00 | 84 | 1009.8 |
| 20260505054539 | 71 | 31 | 0.9 | 4.3 | 0.00 | 0.00 | 0.00 | 84 | 1009.7 |
| 20260505053005 | 71 | 19 | 0.9 | 4.3 | 0.00 | 0.00 | 0.00 | 84 | 1009.7 |
| 20260505051528 | 71 | 306 | 0.9 | 7.8 | 0.00 | 0.00 | 0.00 | 84 | 1009.7 |
| 20260505041512 | 72 | 133 | 0.9 | 7.8 | 0.00 | 0.00 | 0.00 | 82 | 1009.5 |
| 20260505040016 | 72 | 151 | 0.9 | 5.2 | 0.00 | 0.00 | 0.00 | 82 | 1009.5 |
| 20260505034519 | 72 | 148 | 0.9 | 4.3 | 0.00 | 0.00 | 0.00 | 81 | 1009.5 |
| 20260505033024 | 72 | 214 | 0.9 | 7.0 | 0.00 | 0.00 | 0.00 | 81 | 1009.4 |
| 20260505031540 | 73 | 111 | 0.9 | 5.2 | 0.00 | 0.00 | 0.00 | 80 | 1009.4 |
| 20260505030014 | 73 | 195 | 0.0 | 4.3 | 0.00 | 0.00 | 0.00 | 79 | 1009.5 |